| time (UTC) | temp F | wind direction | speed knots | gust knots | rain 1hr in | rain 24hr in | rain mn in | humidity % | barometer mb |
| 20260510194004 | 80 | 304 | 1.7 | 5.2 | 0.00 | 0.00 | 0.00 | 48 | 1015.7 |
| 20260510193505 | 80 | 5 | 0.9 | 2.6 | 0.00 | 0.00 | 0.00 | 47 | 1015.7 |
| 20260510193006 | 80 | 280 | 1.7 | 5.2 | 0.00 | 0.00 | 0.00 | 50 | 1015.7 |
| 20260510192505 | 80 | 278 | 0.0 | 4.3 | 0.00 | 0.00 | 0.00 | 50 | 1015.7 |
| 20260510192004 | 78 | 285 | 1.7 | 4.3 | 0.00 | 0.00 | 0.00 | 50 | 1016.9 |
| 20260510191505 | 79 | 305 | 0.9 | 4.3 | 0.00 | 0.00 | 0.00 | 48 | 1016.9 |
| 20260510191005 | 79 | 251 | 3.5 | 6.1 | 0.00 | 0.00 | 0.00 | 48 | 1016.9 |
| 20260510190505 | 78 | 291 | 0.9 | 4.3 | 0.00 | 0.00 | 0.00 | 52 | 1016.9 |
| 20260510190004 | 78 | 28 | 0.0 | 2.6 | 0.00 | 0.00 | 0.00 | 50 | 1016.9 |
| 20260510185505 | 78 | 92 | 0.9 | 1.7 | 0.00 | 0.00 | 0.00 | 52 | 1016.9 |
| 20260510185005 | 78 | 92 | 0.9 | 2.6 | 0.00 | 0.00 | 0.00 | 52 | 1016.9 |
| 20260510184505 | 78 | 1 | 1.7 | 2.6 | 0.00 | 0.00 | 0.00 | 50 | 1016.9 |
| 20260510184006 | 80 | 32 | 0.9 | 2.6 | 0.00 | 0.00 | 0.00 | 50 | 1016.9 |
| 20260510183504 | 79 | 298 | 0.9 | 2.6 | 0.00 | 0.00 | 0.00 | 54 | 1016.9 |
| 20260510183005 | 78 | 30 | 2.6 | 4.3 | 0.00 | 0.00 | 0.00 | 55 | 1016.9 |
| 20260510182005 | 80 | 111 | 0.9 | 2.6 | 0.00 | 0.00 | 0.00 | 52 | 1016.9 |
| 20260510181005 | 77 | 5 | 0.0 | 0.9 | 0.00 | 0.00 | 0.00 | 56 | 1016.9 |
| 20260510180506 | 77 | 5 | 1.7 | 4.3 | 0.00 | 0.00 | 0.00 | 55 | 1016.9 |
| 20260510175505 | 77 | 287 | 1.7 | 4.3 | 0.00 | 0.00 | 0.00 | 55 | 1016.9 |
| 20260510175005 | 78 | 34 | 0.9 | 2.6 | 0.00 | 0.00 | 0.00 | 57 | 1016.9 |
| 20260510174506 | 78 | 28 | 1.7 | 2.6 | 0.00 | 0.00 | 0.00 | 56 | 1016.9 |
| 20260510174005 | 77 | 38 | 0.0 | 2.6 | 0.00 | 0.00 | 0.00 | 58 | 1016.9 |
| 20260510173006 | 77 | 6 | 1.7 | 4.3 | 0.00 | 0.00 | 0.00 | 56 | 1016.9 |
| 20260510172505 | 78 | 0 | 0.9 | 2.6 | 0.00 | 0.00 | 0.00 | 55 | 1016.9 |
| 20260510172005 | 78 | 246 | 1.7 | 2.6 | 0.00 | 0.00 | 0.00 | 54 | 1016.9 |
| 20260510171505 | 78 | 324 | 0.9 | 2.6 | 0.00 | 0.00 | 0.00 | 53 | 1016.9 |
| 20260510171005 | 78 | 312 | 1.7 | 5.2 | 0.00 | 0.00 | 0.00 | 58 | 1016.9 |
| 20260510170505 | 79 | 17 | 0.9 | 5.2 | 0.00 | 0.00 | 0.00 | 54 | 1016.9 |
| 20260510170004 | 79 | 30 | 0.9 | 2.6 | 0.00 | 0.00 | 0.00 | 55 | 1016.9 |
| 20260510165505 | 78 | 353 | 0.9 | 2.6 | 0.00 | 0.00 | 0.00 | 56 | 1016.9 |
| 20260510165006 | 78 | 306 | 0.9 | 2.6 | 0.00 | 0.00 | 0.00 | 58 | 1016.9 |
| 20260510164505 | 78 | 146 | 0.9 | 2.6 | 0.00 | 0.00 | 0.00 | 58 | 1016.9 |
| 20260510164005 | 77 | 69 | 0.9 | 2.6 | 0.00 | 0.00 | 0.00 | 57 | 1016.9 |
| 20260510163504 | 77 | 107 | 0.9 | 2.6 | 0.00 | 0.00 | 0.00 | 55 | 1016.9 |
| 20260510163006 | 77 | 82 | 0.9 | 2.6 | 0.00 | 0.00 | 0.00 | 59 | 1016.9 |
| 20260510162505 | 76 | 234 | 0.9 | 2.6 | 0.00 | 0.00 | 0.00 | 63 | 1016.9 |
| 20260510162006 | 76 | 53 | 0.0 | 2.6 | 0.00 | 0.00 | 0.00 | 58 | 1016.9 |
| 20260510161506 | 76 | 29 | 0.9 | 2.6 | 0.00 | 0.00 | 0.00 | 58 | 1016.9 |
| 20260510161006 | 77 | 1 | 0.9 | 2.6 | 0.00 | 0.00 | 0.00 | 58 | 1016.9 |
| 20260510160505 | 76 | 205 | 0.0 | 2.6 | 0.00 | 0.00 | 0.00 | 63 | 1016.9 |
| 20260510160006 | 75 | 86 | 0.9 | 2.6 | 0.00 | 0.00 | 0.00 | 61 | 1016.8 |
| 20260510155006 | 74 | 24 | 2.6 | 6.1 | 0.00 | 0.00 | 0.00 | 63 | 1016.8 |
| 20260510154005 | 75 | 358 | 1.7 | 2.6 | 0.00 | 0.00 | 0.00 | 66 | 1016.8 |
| 20260510153505 | 74 | 5 | 0.0 | 2.6 | 0.00 | 0.00 | 0.00 | 72 | 1016.8 |
| 20260510153005 | 74 | 40 | 0.9 | 2.6 | 0.00 | 0.00 | 0.00 | 68 | 1016.9 |
| 20260510152505 | 74 | 122 | 0.0 | 1.7 | 0.00 | 0.00 | 0.00 | 70 | 1016.9 |
| 20260510152005 | 75 | 259 | 0.9 | 1.7 | 0.00 | 0.00 | 0.00 | 69 | 1016.9 |
| 20260510151005 | 73 | 24 | 1.7 | 2.6 | 0.00 | 0.00 | 0.00 | 70 | 1016.9 |
| 20260510150005 | 73 | 102 | 0.9 | 1.7 | 0.00 | 0.00 | 0.00 | 71 | 1016.9 |
| 20260510145505 | 73 | 21 | 0.0 | 2.6 | 0.00 | 0.00 | 0.00 | 73 | 1016.9 |
| 20260510144504 | 71 | 46 | 1.7 | 2.6 | 0.00 | 0.00 | 0.00 | 74 | 1016.9 |
| 20260510144004 | 72 | 21 | 0.9 | 2.6 | 0.00 | 0.00 | 0.00 | 76 | 1016.9 |
| 20260510143505 | 70 | 28 | 1.7 | 2.6 | 0.00 | 0.00 | 0.00 | 76 | 1016.9 |
| 20260510143005 | 70 | 33 | 0.0 | 2.6 | 0.00 | 0.00 | 0.00 | 78 | 1016.9 |
| 20260510142505 | 69 | 39 | 0.9 | 1.7 | 0.00 | 0.00 | 0.00 | 82 | 1016.9 |
| 20260510142005 | 67 | 25 | 0.9 | 2.6 | 0.00 | 0.00 | 0.00 | 81 | 1016.9 |
| 20260510141005 | 67 | 14 | 0.9 | 2.6 | 0.00 | 0.00 | 0.00 | 81 | 1016.9 |
| 20260510140505 | 68 | 304 | 0.9 | 1.7 | 0.00 | 0.00 | 0.00 | 82 | 1016.9 |
| 20260510140005 | 68 | 259 | 0.0 | 1.7 | 0.00 | 0.00 | 0.00 | 84 | 1016.9 |
| 20260510135505 | 68 | 303 | 0.0 | 1.7 | 0.00 | 0.00 | 0.00 | 85 | 1016.9 |
| 20260510135005 | 67 | 32 | 0.9 | 1.7 | 0.00 | 0.00 | 0.00 | 86 | 1016.9 |
| 20260510134505 | 67 | 32 | 0.9 | 1.7 | 0.00 | 0.00 | 0.00 | 86 | 1016.9 |
| 20260510134005 | 66 | 34 | 0.0 | 0.9 | 0.00 | 0.00 | 0.00 | 89 | 1015.1 |
| 20260510133506 | 65 | 34 | 0.9 | 1.7 | 0.00 | 0.00 | 0.00 | 91 | 1015.1 |
| 20260510133005 | 64 | 27 | 1.7 | 2.6 | 0.00 | 0.00 | 0.00 | 92 | 1015.1 |
| 20260510132505 | 64 | 26 | 0.0 | 0.9 | 0.00 | 0.00 | 0.00 | 92 | 1015.1 |
| 20260510132007 | 64 | 26 | 0.0 | 0.9 | 0.00 | 0.00 | 0.00 | 93 | 1015.1 |
| 20260510131505 | 64 | 26 | 0.0 | 0.0 | 0.00 | 0.00 | 0.00 | 93 | 1015.1 |
| 20260510130505 | 63 | 26 | 0.0 | 0.9 | 0.00 | 0.00 | 0.00 | 93 | 1015.1 |
| 20260510130005 | 63 | 26 | 0.0 | 0.9 | 0.00 | 0.00 | 0.00 | 93 | 1015.1 |
| 20260510125005 | 63 | 26 | 0.0 | 2.6 | 0.00 | 0.00 | 0.00 | 94 | 1015.1 |
| 20260510124504 | 62 | 33 | 0.0 | 0.9 | 0.00 | 0.00 | 0.00 | 93 | 1015.1 |
| 20260510124005 | 62 | 33 | 0.0 | 1.7 | 0.00 | 0.00 | 0.00 | 93 | 1015.1 |
| 20260510123005 | 62 | 27 | 0.9 | 2.6 | 0.00 | 0.00 | 0.00 | 93 | 1015.1 |
| 20260510122505 | 62 | 24 | 0.9 | 0.9 | 0.00 | 0.00 | 0.00 | 94 | 1015.1 |
| 20260510122005 | 62 | 24 | 0.0 | 1.7 | 0.00 | 0.00 | 0.00 | 94 | 1015.1 |
| 20260510121005 | 62 | 22 | 0.9 | 2.6 | 0.00 | 0.00 | 0.00 | 93 | 1015.1 |
| 20260510120506 | 62 | 329 | 0.9 | 1.7 | 0.00 | 0.00 | 0.00 | 93 | 1015.1 |
| 20260510115506 | 61 | 279 | 0.0 | 0.9 | 0.00 | 0.00 | 0.00 | 93 | 1015.1 |
| 20260510115006 | 61 | 279 | 0.0 | 2.6 | 0.00 | 0.00 | 0.00 | 93 | 1015.1 |
| 20260510114505 | 61 | 301 | 0.0 | 0.9 | 0.00 | 0.00 | 0.00 | 93 | 1015.1 |
| 20260510114005 | 61 | 301 | 0.0 | 0.9 | 0.00 | 0.00 | 0.00 | 93 | 1015.1 |
| 20260510113504 | 61 | 301 | 0.0 | 4.3 | 0.00 | 0.00 | 0.00 | 93 | 1015.1 |
| 20260510113005 | 61 | 291 | 1.7 | 4.3 | 0.00 | 0.00 | 0.00 | 93 | 1015.1 |
| 20260510112005 | 61 | 303 | 0.0 | 1.7 | 0.00 | 0.00 | 0.00 | 93 | 1015.1 |
| 20260510111506 | 61 | 303 | 0.0 | 0.9 | 0.00 | 0.00 | 0.00 | 93 | 1015.1 |
| 20260510111005 | 61 | 303 | 0.0 | 2.6 | 0.00 | 0.00 | 0.00 | 93 | 1014.8 |
| 20260510110005 | 61 | 288 | 0.0 | 4.3 | 0.00 | 0.00 | 0.00 | 93 | 1013.5 |
| 20260510105505 | 61 | 287 | 1.7 | 4.3 | 0.00 | 0.00 | 0.00 | 93 | 1013.5 |
| 20260510105005 | 61 | 297 | 0.9 | 2.6 | 0.00 | 0.00 | 0.00 | 93 | 1013.5 |
| 20260510104505 | 61 | 298 | 0.0 | 2.6 | 0.00 | 0.00 | 0.00 | 93 | 1013.5 |
| 20260510103505 | 61 | 292 | 0.0 | 2.6 | 0.00 | 0.00 | 0.00 | 93 | 1013.5 |
| 20260510102505 | 61 | 288 | 0.0 | 2.6 | 0.00 | 0.00 | 0.00 | 93 | 1013.5 |
| 20260510102005 | 61 | 296 | 0.9 | 2.6 | 0.00 | 0.00 | 0.00 | 93 | 1013.5 |
| 20260510101504 | 61 | 283 | 0.9 | 2.6 | 0.00 | 0.00 | 0.00 | 93 | 1013.5 |
| 20260510101005 | 61 | 294 | 0.9 | 2.6 | 0.00 | 0.00 | 0.00 | 93 | 1013.5 |
| 20260510100506 | 61 | 293 | 0.0 | 0.0 | 0.00 | 0.00 | 0.00 | 93 | 1013.5 |
| 20260510095505 | 61 | 274 | 0.0 | 0.0 | 0.00 | 0.00 | 0.00 | 93 | 1013.5 |
| 20260510095005 | 61 | 290 | 0.0 | 0.0 | 0.00 | 0.00 | 0.00 | 93 | 1013.5 |
| 20260510094505 | 61 | 289 | 0.0 | 0.0 | 0.00 | 0.00 | 0.00 | 93 | 1013.5 |
| 20260510093505 | 61 | 293 | 0.0 | 0.0 | 0.00 | 0.00 | 0.00 | 93 | 1013.5 |
| 20260510093006 | 61 | 293 | 0.0 | 0.0 | 0.00 | 0.00 | 0.00 | 93 | 1013.5 |
| 20260510092505 | 61 | 292 | 0.0 | 0.0 | 0.00 | 0.00 | 0.00 | 93 | 1013.5 |
| 20260510091505 | 60 | 291 | 0.0 | 0.0 | 0.00 | 0.00 | 0.00 | 93 | 1013.5 |
| 20260510091006 | 60 | 276 | 0.0 | 0.0 | 0.00 | 0.00 | 0.00 | 93 | 1013.5 |
| 20260510090505 | 60 | 235 | 0.0 | 0.0 | 0.00 | 0.00 | 0.00 | 93 | 1013.5 |
| 20260510090005 | 60 | 295 | 0.0 | 0.0 | 0.00 | 0.00 | 0.00 | 93 | 1013.5 |
| 20260510085504 | 60 | 262 | 0.0 | 0.0 | 0.00 | 0.00 | 0.00 | 93 | 1013.5 |
| 20260510084505 | 60 | 271 | 0.0 | 0.0 | 0.00 | 0.00 | 0.00 | 93 | 1013.5 |
| 20260510084007 | 59 | 289 | 0.0 | 0.0 | 0.00 | 0.00 | 0.00 | 93 | 1013.5 |
| 20260510083506 | 59 | 256 | 0.0 | 0.0 | 0.00 | 0.00 | 0.00 | 93 | 1013.5 |
| 20260510083006 | 59 | 255 | 0.0 | 0.0 | 0.00 | 0.00 | 0.00 | 93 | 1013.4 |
| 20260510082505 | 59 | 255 | 0.0 | 0.0 | 0.00 | 0.00 | 0.00 | 93 | 1013.4 |
| 20260510082004 | 60 | 255 | 0.0 | 0.0 | 0.00 | 0.00 | 0.00 | 93 | 1013.4 |
| 20260510081505 | 60 | 255 | 0.0 | 0.0 | 0.00 | 0.00 | 0.00 | 93 | 1013.4 |
| 20260510081006 | 60 | 255 | 0.0 | 0.0 | 0.00 | 0.00 | 0.00 | 93 | 1012.8 |
| 20260510080505 | 60 | 255 | 0.0 | 0.0 | 0.00 | 0.00 | 0.00 | 93 | 1012.8 |
| 20260510075505 | 60 | 255 | 0.0 | 0.0 | 0.00 | 0.00 | 0.00 | 93 | 1012.8 |
| 20260510075006 | 60 | 255 | 0.0 | 0.0 | 0.00 | 0.00 | 0.00 | 93 | 1012.8 |
| 20260510074504 | 60 | 255 | 0.0 | 0.0 | 0.00 | 0.00 | 0.00 | 93 | 1012.8 |
| 20260510074006 | 60 | 255 | 0.0 | 0.0 | 0.00 | 0.00 | 0.00 | 93 | 1012.8 |
| 20260510073505 | 60 | 255 | 0.0 | 0.0 | 0.00 | 0.00 | 0.00 | 93 | 1012.8 |
| 20260510072505 | 60 | 255 | 0.0 | 0.0 | 0.00 | 0.00 | 0.00 | 93 | 1012.8 |
| 20260510072005 | 60 | 255 | 0.0 | 0.0 | 0.00 | 0.00 | 0.00 | 93 | 1012.8 |
| 20260510071506 | 60 | 271 | 0.0 | 0.0 | 0.00 | 0.00 | 0.00 | 93 | 1012.8 |
| 20260510071005 | 60 | 271 | 0.0 | 0.0 | 0.00 | 0.00 | 0.00 | 93 | 1012.8 |
| 20260510070505 | 60 | 271 | 0.0 | 0.0 | 0.00 | 0.00 | 0.00 | 93 | 1012.8 |
| 20260510070005 | 61 | 264 | 0.0 | 0.0 | 0.00 | 0.00 | 0.00 | 93 | 1012.8 |
| 20260510065505 | 61 | 250 | 0.0 | 0.0 | 0.00 | 0.00 | 0.00 | 93 | 1012.8 |
| 20260510065005 | 61 | 248 | 0.0 | 0.0 | 0.00 | 0.00 | 0.00 | 93 | 1012.8 |
| 20260510064505 | 61 | 239 | 0.0 | 0.0 | 0.00 | 0.00 | 0.00 | 93 | 1012.8 |
| 20260510064005 | 61 | 239 | 0.0 | 0.0 | 0.00 | 0.00 | 0.00 | 93 | 1012.8 |
| 20260510063505 | 61 | 239 | 0.0 | 0.0 | 0.00 | 0.00 | 0.00 | 93 | 1012.8 |
| 20260510063006 | 61 | 239 | 0.0 | 0.0 | 0.00 | 0.00 | 0.00 | 93 | 1012.8 |
| 20260510062505 | 61 | 239 | 0.0 | 0.0 | 0.00 | 0.00 | 0.00 | 93 | 1012.8 |
| 20260510062005 | 61 | 239 | 0.0 | 0.0 | 0.00 | 0.00 | 0.00 | 93 | 1012.8 |
| 20260510061505 | 61 | 239 | 0.0 | 0.0 | 0.00 | 0.00 | 0.00 | 93 | 1012.8 |
| 20260510061005 | 61 | 239 | 0.0 | 0.0 | 0.00 | 0.00 | 0.00 | 93 | 1012.8 |
| 20260510060505 | 61 | 239 | 0.0 | 0.0 | 0.00 | 0.00 | 0.00 | 93 | 1012.8 |
| 20260510060006 | 61 | 239 | 0.0 | 0.0 | 0.00 | 0.00 | 0.00 | 93 | 1012.8 |
| 20260510054505 | 61 | 239 | 0.0 | 0.0 | 0.00 | 0.00 | 0.00 | 93 | 1012.8 |
| 20260510054005 | 61 | 239 | 0.0 | 0.0 | 0.00 | 0.00 | 0.00 | 93 | 1012.8 |
| 20260510053505 | 61 | 239 | 0.0 | 0.0 | 0.00 | 0.00 | 0.00 | 93 | 1012.8 |
| 20260510053005 | 61 | 239 | 0.0 | 0.0 | 0.00 | 0.00 | 0.00 | 93 | 1012.8 |
| 20260510052505 | 61 | 239 | 0.0 | 0.0 | 0.00 | 0.00 | 0.00 | 93 | 1012.8 |
| 20260510052005 | 61 | 239 | 0.0 | 0.0 | 0.00 | 0.00 | 0.00 | 93 | 1012.8 |
| 20260510051505 | 61 | 239 | 0.0 | 0.0 | 0.00 | 0.00 | 0.00 | 92 | 1012.8 |
| 20260510051005 | 61 | 239 | 0.0 | 0.0 | 0.00 | 0.00 | 0.00 | 92 | 1012.8 |
| 20260510050506 | 62 | 239 | 0.0 | 0.0 | 0.00 | 0.00 | 0.00 | 92 | 1012.8 |
| 20260510050005 | 62 | 239 | 0.0 | 0.0 | 0.00 | 0.00 | 0.00 | 92 | 1012.8 |
| 20260510045005 | 62 | 239 | 0.0 | 0.0 | 0.00 | 0.00 | 0.00 | 92 | 1012.8 |
| 20260510044505 | 62 | 239 | 0.0 | 0.0 | 0.00 | 0.00 | 0.00 | 92 | 1012.8 |
| 20260510044005 | 62 | 239 | 0.0 | 0.0 | 0.00 | 0.00 | 0.00 | 92 | 1012.8 |
| 20260510043505 | 62 | 239 | 0.0 | 0.0 | 0.00 | 0.00 | 0.00 | 92 | 1012.8 |
| 20260510043006 | 63 | 239 | 0.0 | 0.0 | 0.00 | 0.00 | 0.00 | 92 | 1012.8 |
| 20260510042005 | 63 | 239 | 0.0 | 0.0 | 0.00 | 0.00 | 0.00 | 92 | 1012.8 |
| 20260510041505 | 63 | 239 | 0.0 | 0.0 | 0.00 | 0.00 | 0.00 | 92 | 1012.8 |
| 20260510041006 | 63 | 239 | 0.0 | 0.0 | 0.00 | 0.00 | 0.00 | 92 | 1012.8 |
| 20260510040005 | 63 | 239 | 0.0 | 0.0 | 0.00 | 0.00 | 0.00 | 92 | 1012.8 |
| 20260510034505 | 63 | 239 | 0.0 | 0.0 | 0.00 | 0.00 | 0.00 | 92 | 1012.8 |
| 20260510034005 | 63 | 239 | 0.0 | 0.0 | 0.00 | 0.00 | 0.00 | 92 | 1012.8 |
| 20260510033505 | 63 | 239 | 0.0 | 0.0 | 0.00 | 0.00 | 0.00 | 92 | 1012.8 |
| 20260510033005 | 63 | 239 | 0.0 | 0.0 | 0.00 | 0.00 | 0.00 | 92 | 1012.8 |
| 20260510032506 | 63 | 239 | 0.0 | 0.0 | 0.00 | 0.00 | 0.00 | 91 | 1012.8 |
| 20260510032005 | 63 | 239 | 0.0 | 0.0 | 0.00 | 0.00 | 0.00 | 91 | 1012.8 |
| 20260510031505 | 63 | 239 | 0.0 | 0.0 | 0.00 | 0.00 | 0.00 | 91 | 1012.8 |
| 20260510031006 | 63 | 239 | 0.0 | 0.0 | 0.00 | 0.00 | 0.00 | 91 | 1012.8 |
| 20260510030505 | 64 | 239 | 0.0 | 0.0 | 0.00 | 0.00 | 0.00 | 91 | 1012.8 |
| 20260510030005 | 64 | 239 | 0.0 | 0.0 | 0.00 | 0.00 | 0.00 | 91 | 1012.8 |
| 20260510025505 | 64 | 239 | 0.0 | 0.0 | 0.00 | 0.00 | 0.00 | 91 | 1012.8 |
| 20260510025005 | 64 | 239 | 0.0 | 0.0 | 0.00 | 0.00 | 0.00 | 91 | 1012.8 |
| 20260510024005 | 64 | 178 | 0.0 | 0.0 | 0.00 | 0.00 | 0.00 | 90 | 1012.8 |
| 20260510023505 | 64 | 178 | 0.0 | 0.0 | 0.00 | 0.00 | 0.00 | 90 | 1012.8 |
| 20260510023005 | 64 | 178 | 0.0 | 0.0 | 0.00 | 0.00 | 0.00 | 90 | 1012.8 |
| 20260510022506 | 64 | 178 | 0.0 | 0.0 | 0.00 | 0.00 | 0.00 | 90 | 1012.8 |
| 20260510022005 | 64 | 178 | 0.0 | 0.0 | 0.00 | 0.00 | 0.00 | 90 | 1012.8 |
| 20260510021505 | 64 | 178 | 0.0 | 0.0 | 0.00 | 0.00 | 0.00 | 89 | 1012.8 |
| 20260510021005 | 65 | 178 | 0.0 | 0.0 | 0.00 | 0.00 | 0.00 | 89 | 1012.8 |
| 20260510020005 | 65 | 178 | 0.0 | 0.0 | 0.00 | 0.00 | 0.00 | 89 | 1012.4 |
| 20260510015506 | 65 | 157 | 0.0 | 0.0 | 0.00 | 0.00 | 0.00 | 89 | 1012.4 |
| 20260510015005 | 65 | 157 | 0.0 | 0.0 | 0.00 | 0.00 | 0.00 | 88 | 1012.4 |
| 20260510014505 | 65 | 157 | 0.0 | 0.0 | 0.00 | 0.00 | 0.00 | 88 | 1012.4 |
| 20260510014005 | 65 | 157 | 0.0 | 0.0 | 0.00 | 0.00 | 0.00 | 88 | 1012.4 |
| 20260510013006 | 65 | 226 | 0.0 | 0.0 | 0.00 | 0.00 | 0.00 | 88 | 1012.4 |
| 20260510012505 | 66 | 146 | 0.0 | 0.0 | 0.00 | 0.00 | 0.00 | 87 | 1012.4 |
| 20260510012005 | 66 | 146 | 0.0 | 0.0 | 0.00 | 0.00 | 0.00 | 87 | 1012.4 |
| 20260510011505 | 66 | 146 | 0.0 | 0.0 | 0.00 | 0.00 | 0.00 | 87 | 1012.4 |
| 20260510011005 | 66 | 146 | 0.0 | 0.0 | 0.00 | 0.00 | 0.00 | 86 | 1012.4 |
| 20260510010006 | 66 | 159 | 0.0 | 0.9 | 0.00 | 0.00 | 0.00 | 86 | 1012.1 |
| 20260510005505 | 66 | 147 | 0.9 | 2.6 | 0.00 | 0.00 | 0.00 | 86 | 1012.1 |
| 20260510004505 | 66 | 136 | 0.0 | 1.7 | 0.00 | 0.00 | 0.00 | 86 | 1010.9 |
| 20260510004006 | 66 | 188 | 0.0 | 0.9 | 0.00 | 0.00 | 0.00 | 86 | 1010.9 |
| 20260510003505 | 66 | 198 | 0.0 | 0.9 | 0.00 | 0.00 | 0.00 | 86 | 1010.9 |
| 20260510003006 | 67 | 198 | 0.0 | 0.9 | 0.00 | 0.00 | 0.00 | 85 | 1010.9 |
| 20260510002504 | 67 | 198 | 0.0 | 0.0 | 0.00 | 0.00 | 0.00 | 85 | 1010.9 |
| 20260510002005 | 67 | 240 | 0.0 | 0.9 | 0.00 | 0.00 | 0.00 | 85 | 1010.9 |
| 20260510001006 | 68 | 240 | 0.0 | 0.0 | 0.00 | 0.00 | 0.00 | 83 | 1010.9 |
| 20260510000505 | 68 | 240 | 0.0 | 0.0 | 0.00 | 0.00 | 0.00 | 83 | 1010.9 |
| 20260510000006 | 68 | 240 | 0.0 | 0.0 | 0.00 | 0.00 | 0.00 | 82 | 1010.9 |
| 20260509235505 | 68 | 240 | 0.0 | 0.0 | 0.00 | 0.00 | 0.00 | 81 | 1010.9 |
| 20260509234506 | 69 | 240 | 0.0 | 0.0 | 0.00 | 0.00 | 0.00 | 80 | 1010.9 |
| 20260509234007 | 69 | 240 | 0.0 | 0.0 | 0.00 | 0.00 | 0.00 | 80 | 1010.9 |
| 20260509233505 | 69 | 240 | 0.0 | 0.0 | 0.00 | 0.00 | 0.00 | 79 | 1010.9 |
| 20260509233006 | 69 | 240 | 0.0 | 0.9 | 0.00 | 0.00 | 0.00 | 79 | 1010.9 |
| 20260509232506 | 69 | 240 | 0.0 | 0.9 | 0.00 | 0.00 | 0.00 | 79 | 1010.9 |
| 20260509232005 | 69 | 240 | 0.0 | 0.9 | 0.00 | 0.00 | 0.00 | 79 | 1010.9 |
| 20260509231005 | 70 | 240 | 0.0 | 1.7 | 0.00 | 0.00 | 0.00 | 77 | 1010.9 |
| 20260509230506 | 70 | 235 | 0.0 | 1.7 | 0.00 | 0.00 | 0.00 | 77 | 1010.9 |
| 20260509225506 | 70 | 179 | 0.0 | 0.9 | 0.00 | 0.00 | 0.00 | 75 | 1010.9 |
| 20260509225005 | 70 | 263 | 0.9 | 1.7 | 0.00 | 0.00 | 0.00 | 75 | 1010.9 |
| 20260509224506 | 71 | 261 | 0.0 | 1.7 | 0.00 | 0.00 | 0.00 | 75 | 1010.9 |
| 20260509223506 | 71 | 107 | 0.0 | 0.9 | 0.00 | 0.00 | 0.00 | 75 | 1010.9 |
| 20260509223005 | 71 | 107 | 0.0 | 1.7 | 0.00 | 0.00 | 0.00 | 75 | 1010.9 |
| 20260509222505 | 71 | 94 | 0.0 | 1.7 | 0.00 | 0.00 | 0.00 | 74 | 1010.9 |
| 20260509222005 | 71 | 141 | 0.9 | 1.7 | 0.00 | 0.00 | 0.00 | 74 | 1010.9 |
| 20260509221505 | 71 | 164 | 0.0 | 1.7 | 0.00 | 0.00 | 0.00 | 73 | 1010.9 |
| 20260509221006 | 71 | 115 | 0.0 | 1.7 | 0.00 | 0.00 | 0.00 | 73 | 1010.9 |
| 20260509220006 | 72 | 227 | 0.0 | 1.7 | 0.00 | 0.00 | 0.00 | 72 | 1010.9 |
| 20260509215005 | 72 | 195 | 0.0 | 0.9 | 0.00 | 0.00 | 0.00 | 72 | 1010.9 |
| 20260509214505 | 72 | 98 | 0.0 | 0.9 | 0.00 | 0.00 | 0.00 | 71 | 1010.9 |
| 20260509214006 | 72 | 116 | 0.0 | 0.9 | 0.00 | 0.00 | 0.00 | 71 | 1010.9 |
| 20260509213505 | 72 | 190 | 0.0 | 1.7 | 0.00 | 0.00 | 0.00 | 70 | 1010.9 |
| 20260509213005 | 73 | 118 | 0.9 | 2.6 | 0.00 | 0.00 | 0.00 | 71 | 1011.0 |
| 20260509212506 | 73 | 122 | 0.0 | 2.6 | 0.00 | 0.00 | 0.00 | 70 | 1011.0 |
| 20260509212005 | 73 | 149 | 0.0 | 1.7 | 0.00 | 0.00 | 0.00 | 70 | 1011.0 |
| 20260509211505 | 73 | 218 | 0.9 | 2.6 | 0.00 | 0.00 | 0.00 | 70 | 1011.0 |
| 20260509211005 | 73 | 160 | 0.0 | 1.7 | 0.00 | 0.00 | 0.00 | 70 | 1011.0 |
| 20260509210504 | 73 | 251 | 0.0 | 1.7 | 0.00 | 0.00 | 0.00 | 70 | 1011.0 |
| 20260509210005 | 72 | 127 | 0.0 | 1.7 | 0.00 | 0.00 | 0.00 | 69 | 1011.0 |
| 20260509205504 | 72 | 240 | 0.9 | 1.7 | 0.00 | 0.00 | 0.00 | 70 | 1011.0 |
| 20260509205006 | 72 | 194 | 0.0 | 2.6 | 0.00 | 0.00 | 0.00 | 70 | 1011.0 |
| 20260509204505 | 73 | 233 | 0.0 | 1.7 | 0.00 | 0.00 | 0.00 | 70 | 1011.0 |
| 20260509204006 | 72 | 146 | 0.0 | 1.7 | 0.00 | 0.00 | 0.00 | 71 | 1011.0 |
| 20260509203505 | 73 | 280 | 0.9 | 2.6 | 0.00 | 0.00 | 0.00 | 67 | 1011.0 |
| 20260509202504 | 73 | 228 | 0.9 | 2.6 | 0.00 | 0.00 | 0.00 | 70 | 1011.0 |
| 20260509202005 | 73 | 253 | 0.9 | 2.6 | 0.00 | 0.00 | 0.00 | 69 | 1011.0 |
| 20260509201505 | 72 | 48 | 0.0 | 0.9 | 0.00 | 0.00 | 0.00 | 70 | 1011.0 |
| 20260509200505 | 73 | 158 | 0.0 | 1.7 | 0.00 | 0.00 | 0.00 | 69 | 1011.0 |
| 20260509200005 | 73 | 265 | 0.0 | 2.6 | 0.00 | 0.00 | 0.00 | 69 | 1011.0 |
| 20260509195506 | 73 | 154 | 0.0 | 0.9 | 0.00 | 0.00 | 0.00 | 68 | 1011.0 |
| 20260509195005 | 73 | 152 | 0.9 | 4.3 | 0.00 | 0.00 | 0.00 | 68 | 1011.6 |
| 20260509194506 | 73 | 255 | 0.9 | 4.3 | 0.00 | 0.00 | 0.00 | 69 | 1011.6 |